Simultaneous Nadir Overpasses (SNOs) Predictions

Prediction of SNOs between GOES-17 and METOP-A Satellite Orbit:

Table of predicted SNOs for the next 14.0 days since TLE Epoch: 11/7/2020
Index Date Time (GOES-17) GOES-17 Lat,Lon METOP-A Lat,Lon Distance(km) Time Diff (sec)
1 11/07/2020 05:50:11 0.04,-137.22 -0.58,-140.01 317.78 80
2 11/08/2020 05:26:52 0.04,-137.22 0.52,-135.03 249.61 80
3 11/09/2020 17:45:44 -0.04,-137.24 0.48,-139.63 273.02 80
4 11/10/2020 17:27:45 -0.03,-137.23 -0.62,-134.66 294.07 80
5 11/12/2020 05:46:45 0.03,-137.22 -0.42,-139.29 235.20 80
6 11/13/2020 05:23:25 0.03,-137.22 0.68,-134.31 331.48 80
7 11/14/2020 17:42:18 -0.03,-137.22 0.32,-138.91 192.31 80
8 11/15/2020 17:24:17 -0.03,-137.21 -0.72,-133.92 373.97 80
9 11/17/2020 05:43:19 0.02,-137.18 -0.25,-138.56 156.65 80
10 11/18/2020 05:22:38 0.02,-137.17 0.79,-133.57 409.19 80
11 11/19/2020 17:38:50 -0.01,-137.16 0.20,-138.17 115.82 80
12 11/20/2020 17:20:51 -0.01,-137.14 -0.90,-133.20 449.81 80
